Regional Weather Roundup
Issued by NWS

Home | Current Version | Previous Version | Graphics & Text | Print | Product List | Glossary On
Versions: 1 2 3 4 5 6 7 8 9 10 11 12 13 14 15 16 17 18 19 20 21 22 23 24 25 26 27 28 29 30 31 32 33 34 35 36 37 38 39 40 41 42 43 44 45 46 47 48 49 50
000
ASUS45 KCYS 240410
RWRWY

WYOMING REGIONAL WEATHER ROUNDUP
NATIONAL WEATHER SERVICE CHEYENNE WY
900 PM MST MON JAN 23 2017

NOTE:  "FAIR" INDICATES FEW OR NO CLOUDS BELOW 12,000 FEET
WITH NO SIGNIFICANT WEATHER AND/OR OBSTRUCTIONS TO VISIBILITY.

WYZ001-240500-
YELLOWSTONE NATIONAL PARK

CITY           SKY/WX    TMP DP  RH WIND       PRES   REMARKS
LK YELLOWSTONE   N/A     20  13  74 VRB5      29.48S WCI  13
W YELLOWSTONE  NOT AVBL

$$
WYZ002>013-054>058-071-098>099-240500-
NORTHERN WYOMING

CITY           SKY/WX    TMP DP  RH WIND       PRES   REMARKS
JACKSON        CLOUDY    25  25 100 N13       29.44R WCI  13
CODY           LGT SNOW  20  17  88 NW15G22   29.65R FOG     WCI   6
GREYBULL       CLOUDY    23  17  78 NW8       29.61S WCI  14
WORLAND        CLOUDY    23  20  88 N9        29.63R WCI  13
SHERIDAN       CLOUDY    18  15  88 VRB6      29.75R WCI  10
BUFFALO        FOG       17  13  84 N20       29.66R VSB 1/2 WCI   1
GILLETTE       FOG       15  14  95 N15       29.69R VSB 1/2 WCI   0
HULETT         FOG       19  18  93 MISG      29.69R VSB<1/4
NEWCASTLE      MOCLDY    27  27 100 SE9       29.62S WCI  17

$$
WYZ014>020-022>026-101>103-240500-
CENTRAL WYOMING

CITY           SKY/WX    TMP DP  RH WIND       PRES   REMARKS
BIG PINEY      LGT SNOW  20  18  92 NE6       29.44S FOG     WCI  12
PINEDALE       LGT SNOW  23  23 100 E8        29.45S VSB 3/4 WCI  14
DUBOIS         NOT AVBL
LANDER         LGT SNOW  24  23  96 N6        29.53R VSB 3/4 WCI  17
RIVERTON       LGT SNOW  24  22  91 NE6       29.55R VSB 3/4 WCI  17
CASPER         LGT SNOW  23  21  92 N21       29.56R VSB 1   WCI   8
DOUGLAS        CLOUDY    30  24  78 E8        29.57S WCI  22

$$
WYZ021-027>030-104>119-240500-
SOUTHERN WYOMING

CITY           SKY/WX    TMP DP  RH WIND       PRES   REMARKS
EVANSTON       FAIR      20  15  81 SW23      29.49S WCI   3
ROCK SPRINGS   CLOUDY    25  20  81 SW8       29.48R WCI  16
RAWLINS        MOCLDY    27  19  72 SW10      29.49R WCI  17
LARAMIE        MOCLDY    24  23  96 SE12      29.52S WCI  13
CHEYENNE       LGT SNOW  31  30  96 W7        29.56R FOG     WCI  24
TORRINGTON     CLOUDY    33  26  75 NE13      29.55F WCI  24

$$



USA.gov is the U.S. government's official web portal to all federal, state and local government web resources and services.